Current weather by "City, St" or "zip code"  
 

Current Conditions: Barnwell Regional Airport, SC

Fog/Mist


61.0 F

Last Updated on Jan 31 2023, 8:35 pm EST
Humidity: 94%
Wind Speed: N 0.0 mph
Barometer 30.15 in
Dewpoint: 59.0 F
Visibility: 4.00 mi
Precip: --
Heat Index: NA
Wind Chill: NA
Current conditions at:

Barnwell Regional Airport, SC (KBNL)

Lat: 33.258 Lon: 81.388

Local Radar Image active severe weather and emergency alerts image image weather storm and storm spotter reports image weather observation monitoring service image
Local
Radar
Active
Alerts
Storm Reports Obs
Monitoring

Sign-up For Email & Text Message Weather Alert Notification Services



Advertise Here

Observation History for Barnwell Regional Airport, SC


Time Wind
(mph)
Vis
(mi)
Weather Precip (in) Temperature (F) Relative
Humidity
Wind
Chill
(F)
Heat
Index
(F)
Pressure
Air Dwpt altimeter
(in)
sea level
(mb)
Rmks
8:35 pm EST N 0.0 4.00 Fog/Mist -- 61.0 59.0 94% NA NA 30.15 M
7:35 pm EST N 0.0 10.00 Mostly Cloudy -- 63.0 62.6 100% NA NA 30.14 M
6:15 pm EST S 4.6 10.00 Overcast -- 64.0 62.6 94% NA NA 30.13 M
4:55 pm EST W 4.6 10.00 Mostly Cloudy -- 66.0 62.6 88% NA NA 30.12 M
4:35 pm EST SW 3.5 10.00 A Few Clouds -- 66.0 60.8 83% NA NA 30.12 M
11:55 am EST W 4.6 10.00 Overcast -- 59.0 59.0 100% 59 NA 30.21 M
11:35 am EST N 0.0 10.00 Overcast -- 59.0 59.0 100% NA NA 30.21 M
11:15 am EST 4.6 10.00 Overcast -- 57.0 57.2 100% 57 NA 30.21 M
10:35 am EST N 0.0 10.00 Overcast -- 57.0 57.2 100% NA NA 30.22 M
4:55 am EST N 0.0 0.25 Fog -- 55.0 55.4 100% NA NA 30.16 M
4:15 am EST N 0.0 0.50 Fog -- 55.0 55.4 100% NA NA 30.17 M
3:55 am EST N 0.0 0.50 Fog/Mist -- 55.0 55.4 100% NA NA 30.17 M
2:55 am EST N 0.0 0.75 Fog/Mist -- 55.0 55.4 100% NA NA 30.16 M
1:35 am EST N 0.0 0.50 Fog -- 55.0 55.4 100% NA NA 30.16 M
12:35 am EST N 0.0 0.75 Fog/Mist -- 55.0 55.4 100% NA NA 30.19 M
11:55 pm EST E 4.6 0.75 Fog/Mist -- 55.0 55.4 100% 54 NA 30.18 M
11:35 pm EST N 0.0 1.00 Fog/Mist -- 55.0 55.4 100% NA NA 30.20 M
9:15 pm EST N 0.0 0.50 Fog/Mist -- 55.0 55.4 100% NA NA 30.20 M
8:15 pm EST N 0.0 0.50 Fog -- 55.0 55.4 100% NA NA 30.20 M

Regional Weather Observation


Augusta, Bush Field, GA (KAGS)

Overcast
68.0 F

Barnwell Regional Airport, SC (KBNL)

Fog/Mist
61.0 F

Columbia, Columbia Metropolitan Airport, SC (KCAE)

Mostly Cloudy
62.0 F

Columbia - Jim Hamilton L.B. Owens Airport, SC (KCUB)

A Few Clouds
62.0 F

Augusta Daniel Field, GA (KDNL)

Overcast
68.0 F

Allendale County Airport, SC (KAQX)

Fair with Haze
61.0 F

Advertise Here


Advertise Here